www.pogodaiklimat.ru

Погода и климат >> Архив погоды >> Украина >> Киев


АРХИВ ПОГОДЫ в Киеве

Время (UTC), дата Ветер
(напр.,м/с)
 
Видим.   Явления Облачность Т
(С)
Тd
(С)
f
(%)
Тe
(С)
Тes
(С)
Комфортность P
(гПа)
Po
(гПа)
Тmin
(С)
Tmax
(С)
R
(мм)
R24
(мм)
S
(см)
06 9.01 штиль 0 4000 м дымка {снег} 10/10 540 м
[St]
-13.8 -15.2 89 -14 -14 холодно 1012.3 990.3 -14.4 0.0 27
09 9.01 Ю 1 4000 м дымка {снег} 4/0
[Ac As]
-9.1 -11.5 83 -11 -10 прохладно 1011.7 990.1
12 9.01 Ю 1 10 км {снег} 6/4 600 м
[Sc As trans]
-8.2 -11.8 75 -10 -10 прохладно 1011.9 990.3
15 9.01 штиль 0 10 км {снег} 3/0
[Ci fib]
-11.1 -13.0 86 -11 -11 прохладно 1012.8 991.0
18 9.01 Ю 2 4000 м дымка {снег} 10/10 450 м
[St]
-11.0 -12.2 91 -16 -16 очень
холодно
1014.2 992.4 -7.1 0.0
21 9.01 ЮВ 2 4000 м дымка 10/10 570 м
[Sc]
-10.1 -11.4 90 -15 -15 холодно 1015.4 993.6
00 10.01 Ю 1 4000 м дымка {снег} 10/10 330 м
[Frnb]
-9.9 -11.1 91 -12 -12 прохладно 1016.0 994.2
03 10.01 ЮВ 1 4000 м дымка 10/10 360 м
[St]
-9.5 -10.7 91 -12 -12 прохладно 1015.5 993.8
06 10.01 В 1 4000 м слаб. снег 10/10 210 м
[Frnb Ns]
-9.3 -10.4 92 -12 -12 прохладно 1017.2 995.4 -11.0 0.0 26
09 10.01 В 1 4000 м слаб. снег 10/10 210 м
[Frnb Ns]
-7.9 -9.3 90 -10 -10 по сезону 1017.5 995.9
12 10.01 В 1 4000 м слаб. снег 10/10 420 м
[Sc]
-6.8 -8.8 86 -9 -9 по сезону 1017.5 995.9
15 10.01 СВ 2 2000 м слаб. снег 10/8 600 м
[Sc As op]
-6.9 -8.5 88 -11 -11 прохладно 1017.9 996.3
18 10.01 СВ 2 4000 м слаб. снег 10/10 630 м
[Sc]
-7.0 -8.3 90 -11 -11 прохладно 1018.3 996.7 -6.4 0.3
21 10.01 СВ 2 4000 м слаб. снег 10/10 270 м
[Sc]
-6.9 -8.1 91 -11 -11 по сезону 1018.6 997.0
00 11.01 СВ 4 4000 м дымка {снег} 10/10 480 м
[St]
-6.9 -8.9 86 -14 -14 холодно 1018.2 996.6
03 11.01 СВ 4 4000 м дымка 10/10 240 м
[St]
-8.5 -10.4 86 -15 -15 холодно 1018.3 996.6
06 11.01 С 4 4000 м дымка 10/10 120 м
[St]
-9.8 -10.6 94 -17 -17 очень
холодно
1018.0 996.2 -9.8 0.3 28
09 11.01 С 4 4000 м в посл. час снег 10/10 240 м
[St]
-9.6 -11.2 88 -17 -17 очень
холодно
1016.8 995.0
12 11.01 С 3 10 км {снег} 9/9 420 м
[Sc]
-9.3 -12.3 79 -15 -15 очень
холодно
1014.8 993.1
15 11.01 С 2 10 км ясно -10.1 -12.7 81 -15 -15 очень
холодно
1014.4 992.6
18 11.01 С 2 10 км 9/9 330 м
[Sc]
-10.4 -12.6 84 -15 -15 очень
холодно
1013.4 991.6 -8.7 0.0
21 11.01 СЗ 2 4000 м дымка 10/10 270 м
[St]
-10.3 -12.0 87 -15 -15 очень
холодно
1011.3 989.6
00 12.01 З 4 4000 м слаб. снег 10/10 240 м
[St]
-11.1 -12.8 87 -18 -18 очень
холодно
1009.8 988.1
03 12.01 З 3 4000 м дымка {снег} 10/10 270 м
[St]
-11.3 -12.9 88 -17 -17 очень
холодно
1007.9 986.2
06 12.01 ЮЗ 3 4000 м дымка {снег} 10/10 180 м
[St]
-9.8 -11.4 88 -16 -16 очень
холодно
1005.4 983.9 -11.9 0.0 26
09 12.01 З 4 2000 м слаб. снег 10/8 300 м
[Frnb Ac As]
-6.8 -8.8 86 -13 -13 холодно 1004.5 983.2
12 12.01 СЗ 3 4000 м слаб. снег 10/8 330 м
[Frnb As op]
-3.9 -6.1 85 -9 -9 прохладно 1003.5 982.5
15 12.01 СЗ 3 10 км {снег} 10/10 400 м
[Sc]
-4.0 -6.2 85 -9 -9 прохладно 1005.1 984.0
18 12.01 З 3 10 км {снег} 10/10 480 м
[Sc]
-3.6 -5.7 85 -9 -9 по сезону 1005.4 984.4 -3.6 0.8
21 12.01 З 3 10 км 10/10 660 м
[Sc]
-2.7 -4.6 87 -8 -8 по сезону 1005.0 984.0
00 13.01 З 3 10 км 10/10 600 м
[Sc]
-1.8 -3.9 86 -7 -7 по сезону 1004.6 983.7
03 13.01 З 3 10 км 10/10 1080 м
[Sc]
-1.5 -3.5 86 -6 -6 по сезону 1003.9 983.1
06 13.01 З 3 10 км 10/10 1000 м
[Sc]
-1.3 -3.9 82 -6 -6 по сезону 1003.7 982.9 -3.6 27
09 13.01 З 4 20 км 10/10 700 м
[Sc]
-0.3 -3.9 77 -6 -6 по сезону 1003.5 982.8
12 13.01 ЮЗ 3 20 км 10/10 630 м
[Sc]
0.0 -3.5 77 -5 -5 по сезону 1001.6 980.9
15 13.01 ЮЗ 3 20 км в посл. час снег 10/10 400 м
[Frnb]
-0.9 -3.1 85 -6 -6 по сезону 1000.2 979.5
18 13.01 ЮЗ 4 4000 м слаб. снег 10/10 270 м
[Frnb Ns]
-1.2 -2.5 91 -7 -7 по сезону 998.7 978.0 +0.5 0.0
21 13.01 ЮЗ 4 4000 м слаб. снег 10/10 330 м
[Frnb Ns]
-1.7 -2.8 92 -8 -8 по сезону 996.9 976.2
00 14.01 ЮЗ 4 4000 м дымка {снег} 10/10 400 м
[Frnb]
-1.9 -3.3 90 -8 -8 по сезону 994.6 973.9
03 14.01 ЮЗ 5 20 км 6/6 600 м
[Sc]
-2.8 -6.5 76 -9 -9 по сезону 992.5 971.8
06 14.01 ЮЗ 4 20 км 3/0
[Ac trans]
-5.8 -8.4 82 -12 -12 прохладно 991.6 970.7 -5.9 0.6 26
09 14.01 Ю 5 20 км 8/8 600 м
[Sc]
-4.3 -7.7 77 -11 -11 прохладно 990.2 969.4
12 14.01 ЮЗ 4 20 км 9/9 870 м
[Sc]
-2.1 -5.9 75 -8 -8 прохладно 987.7 967.1
15 14.01 ЮЗ 3 2000 м снег 10/10 300 м
[Frnb Ns]
-3.3 -5.0 88 -9 -9 прохладно 987.7 967.1
18 14.01 ЮЗ 4 4000 м слаб. снег 10/10 330 м
[Frnb Ns]
-1.5 -2.6 92 -7 -7 по сезону 988.1 967.6 -1.4 0.6
21 14.01 СЗ 3 20 км {снег} 8/8 840 м
[Sc]
+0.7 -2.0 82 -4 -4 по сезону 991.0 970.6
00 15.01 СЗ 4 20 км {снег} 3/3 1000 м
[Sc]
-1.5 -5.8 72 -7 -7 по сезону 994.6 973.9
03 15.01 З 4 20 км ясно -3.5 -7.4 74 -9 -9 по сезону 996.2 975.4
06 15.01 З 4 20 км ясно -3.5 -7.4 74 -9 -9 по сезону 996.2 975.4
09 15.01 З 5 20 км позёмок 4/0
[Ci fib]
-2.4 -7.5 68 -9 -8 по сезону 999.8 979.0
12 15.01 З 5 20 км позёмок 4/0
[Ci fib]
-2.4 -7.5 68 -9 -8 прохладно 999.8 979.0
15 15.01 З 4 20 км в посл. час снег {метель} 9/9 1080 м
[Sc]
-1.3 -6.0 70 -7 -7 по сезону 999.5 978.8
18 15.01 З 4 4000 м ливневой снег 10/10 600 м
[Cb cap]
-1.8 -4.2 84 -8 -8 по сезону 999.8 979.0
21 15.01 З 5 20 км 3/0
[Ac trans Ci fib]
-2.9 -6.3 77 -9 -9 по сезону 999.8 978.9
00 16.01 З 4 20 км 6/6 480 м
[St]
-2.8 -5.1 84 -9 -9 по сезону 999.5 978.6
03 16.01 З 4 20 км 6/6 480 м
[St]
-2.8 -5.1 84 -9 -9 по сезону 999.5 978.6

 

Местоположение метеостанции Киев (город Киев, Украина): широта 50.40 долгота 30.57 высота над уровнем моря 167 м.

В архиве по умолчанию представлена погода в Киеве за последнюю неделю. Архивные данные за месяц целиком и за предыдущие месяцы, начиная с января 2011 года, Вы можете получить, выбрав интересующий диапазон дат из раскрывающегося списка и нажав кнопку "Ввод!".


*Определитесь, кто Вы:
робот инопланетянин человек

Внимание! Время в таблицах - всемирное. Для получения местного времени необходимо прибавить поправку, которая равна 2 ч.

Смотрите также архив погоды в соседних городах и на ближайших метеорологических станциях:

Погода в Вышгороде (Киевская область, Украина) (21 км)
Погода в Борисполе (Киевская область, Украина) (29 км)
Погода в Барышевке (Киевская область, Украина) (54 км)
Погода в Фастове (Киевская область, Украина) (58 км)
Погода в Остере (Черниговская область, Украина) (65 км)
Погода в Тетереве (Киевская область, Украина) (78 км)
Погода в Белой Церкви (Киевская область, Украина) (79 км)
Погода в Мироновке (Киевская область, Украина) (87 км)
Погода в Яготине (Киевская область, Украина) (90 км)
Погода в Чернобыле (Киевская область, Украина) (101 км)

Пояснения к столбцам:

Ветер - указаны скорость ветра в м/с - средняя за 10 мин, порывы в срок и между сроками (в фигурных скобках) и направление, откуда дует ветер: С - северный, СВ - северо-восточный, В - восточный, ЮВ - юго-восточный, Ю - южный, ЮЗ - юго-западный, З - западный, СЗ - северо-западный.
Видимость - горизонтальная дальность видимости в метрах или километрах. При видимости от 1 до 10 км при отсутствии осадков обычно наблюдается дымка, при ухудшении видимости до 1 км и менее - туман. В сухую погоду видимость может ухудшаться дымом, пылью или мглою.
Явления - указаны атмосферные явления, наблюдавшиеся в срок или в последний час перед сроком; фигурными скобками обозначены явления, наблюдавшиеся между сроками (за 1-3 часа до срока); квадратными скобками обозначены град или гололедные отложения с указанием их диаметра в мм.
Облачность - указаны через наклонную черту общая и нижняя облачность в баллах и высота нижней границы облаков в метрах; квадратными скобками обозначены формы облаков: Ci - перистые, Cs - перисто-слоистые, Cc - перисто-кучевые, Ac - высококучевые, As - высокослоистые, Sc - слоисто-кучевые, Ns - слоисто-дождевые, Cu - кучевые, Cb - кучево-дождевые. Подробнее классификацию облаков см. в Атласе облаков (PDF).
T - Температура воздуха - температура, измеренная на высоте 2 м над землей.
Td - Температура точки росы - температура, при понижении до которой содержащийся в воздухе водяной пар достигнет насыщения.
f - Относительная влажность воздуха - влажноcть воздуха, измеренная на высоте 2 м над землей.
Te - Эффективная температура - температура, которую ощущает одетый по сезону человек в тени. Характеристика душности погоды. При расчете учитывается влияние влажности воздуха и скорости ветра на теплоощущения человека.
Tes - Эффективная температура на солнце - температура, которую ощущает человек, с поправкой на солнечный нагрев. Характеристика знойности погоды. Зависит от высоты солнца над горизонтом, облачности и скорости ветра. Ночью, в пасмурную погоду, а также при ветре 12 м/с и более поправка равна нулю.
P - Атмосферное давление - приведенное к уровню моря атмосферное давление.
Po - Атмосферное давление - измеренное на уровне метеостанции атмосферное давление.
Tmin - Минимальная температура - минимум температуры воздуха на высоте 2 м над землей.
Tmax - Максимальная температура - максимум температуры воздуха на высоте 2 м над землей.
R - Количество осадков - Количество выпавших осадков за период времени, мм. При наведении курсора мыши на число - период времени, за который выпало указанное количество осадков.
R24 - Количество осадков - Количество выпавших осадков за 24 часа, мм.
S - Снежный покров - Высота снежного покрова, см. При наведении курсора мыши на число - состояние снежного покрова и степень покрытия местности в баллах.